"Pseudo-MPEC" for P10NCOO

Created 2019 May 21 8:07:14 UT using Find_Orb

Click here for an explanation of pseudo-MPECs

 
 Astrometry: 
     P10NCOO  C2019 05 08aQlL-vhX(OL#'UZH7S!MlD+IuepRfh9q5?$1a\m7/J/ji8=wnjC8F51
     P10NCOO  C2019 05 08vlg;s[_3Rt,W_nm,_VVnF\79h-D1ytWg5t:p3MI-ZZF('Rg^b[^EF51
     P10NCOO  C2019 05 08rwyaAstrometry*CL*redacted;*K-Xe$km'R';R/B*vF1ek]jx!F51
     P10NCOO KC2019 05 09hK_click`/0heremgOqXvRdWmf6pF'58eR\cS$h8dwXd+)v(\`_O691
     P10NCOO KC2019 05 09?v6#$K;i#Q,0Vutr$R]0\Ylt+Gvfor1gSbWVf(K/`Vopfjsa=Q9T691
     P10NCOO KC2019 05 09;Og-mamo8X6k@m!`uI5\?`Ic3dd#4-gTcZIU9_explanationF3,691

Station data:
(691) Steward Observatory, Kitt Peak - Spacewatch  (N31.962174 W111.600327)
   US/Arizona.  Observer J. V. Scotti. 0.9-m f/3 reflector + CCD.
(F51) Pan-STARRS 1, Haleakala  (N20.707235 W156.255910)  US/Hawaii.
   Observers N. Primak, A. Schultz, S. Watters, J. Thiel, T. Goggia. Measurer
   PS1 Science Consortium. 1.8-m Ritchey-Chrétien + CCD.

Orbital elements:  P10NCOO
   Perihelion 2019 Jun 2.623609 +/- 1.29 TT = 14:57:59 (JD 2458637.123609)
Epoch 2019 May  9.0 TT = JDT 2458612.5   Earth MOID: 0.0286   Ma: 0.0418
M 350.26653421 +/- 2.1              (J2000 ecliptic)          AutoNEOCP
n   0.39528998 +/- 0.108            Peri.  113.30141 +/- 35
a   1.83876195 +/- 0.335            Node   138.68716 +/- 32
e   0.4330954 +/- 0.109             Incl.    0.34439 +/- 0.034
P   2.49/910.71d           H 26.3   G  0.15   U 11.2  
q 1.04240260 +/- 0.0124    Q 2.63512131 +/- 0.769
From 6 observations 2019 May 8-9 (23.8 hr); mean residual 0".07
Residuals in arcseconds: 
190508 F51  .04+  .07-    190508 F51  .03+  .11+    190509 691  .12-  .10+    
190508 F51  .07-  .03-    190509 691  .07+  .04-    190509 691  .05+  .06-    

Ephemerides (geocentric):
Date (UTC) HH   RA              Dec         delta   r     elong  mag " sig PA
---- -- -- --  -------------   -----------  ------ ------ -----  --- ---- ---
2019 05 21 08  13 56 01.804   -03 38 15.16  .04606 1.0512 147.7 21.1 5466 100
2019 05 21 09  13 56 26.356   -03 39 29.41  .04595 1.0512 147.7 21.1 5528 100
2019 05 21 10  13 56 51.029   -03 40 44.03  .04585 1.0511 147.8 21.1 5591 100
2019 05 21 11  13 57 15.826   -03 41 59.02  .04574 1.0511 147.9 21.0 5654 100
2019 05 21 12  13 57 40.746   -03 43 14.38  .04563 1.0510 147.9 21.0 5718 100
2019 05 21 13  13 58 05.791   -03 44 30.11  .04553 1.0509 148.0 21.0 5783 100
2019 05 21 14  13 58 30.961   -03 45 46.23  .04542 1.0509 148.0 21.0 5848 100
2019 05 21 15  13 58 56.256   -03 47 02.72  .04532 1.0508 148.1 21.0 5914 100
2019 05 21 16  13 59 21.677   -03 48 19.58  .04521 1.0508 148.2 21.0 5981 100
2019 05 21 17  13 59 47.225   -03 49 36.83  .04510 1.0507 148.2 21.0 6048 100
2019 05 21 18  14 00 12.901   -03 50 54.46  .04500 1.0506 148.3 21.0 6116 100
2019 05 21 19  14 00 38.705   -03 52 12.46  .04489 1.0506 148.4 21.0 6184 100
2019 05 21 20  14 01 04.638   -03 53 30.86  .04479 1.0505 148.4 21.0 6253 100
2019 05 21 21  14 01 30.700   -03 54 49.63  .04468 1.0505 148.5 21.0 6323 100
2019 05 21 22  14 01 56.893   -03 56 08.79  .04458 1.0504 148.5 21.0 6394 100
2019 05 21 23  14 02 23.217   -03 57 28.34  .04447 1.0504 148.6 21.0 6465 100
2019 05 22 00  14 02 49.673   -03 58 48.28  .04437 1.0503 148.7 21.0 6536 100
2019 05 22 01  14 03 16.260   -04 00 08.60  .04427 1.0502 148.7 21.0 6609 100
2019 05 22 02  14 03 42.981   -04 01 29.31  .04416 1.0502 148.8 20.9 6682 100
2019 05 22 03  14 04 09.836   -04 02 50.42  .04406 1.0501 148.9 20.9 6756 100
2019 05 22 04  14 04 36.825   -04 04 11.92  .04396 1.0501 148.9 20.9 6830 100
2019 05 22 05  14 05 03.949   -04 05 33.81  .04385 1.0500 149.0 20.9 6905 100
2019 05 22 06  14 05 31.209   -04 06 56.10  .04375 1.0500 149.1 20.9 6981 100
2019 05 22 07  14 05 58.605   -04 08 18.78  .04365 1.0499 149.1 20.9 7058 100
2019 05 22 08  14 06 26.139   -04 09 41.86  .04354 1.0499 149.2 20.9 7135 100
2019 05 22 09  14 06 53.811   -04 11 05.33  .04344 1.0498 149.3 20.9 7213 100
2019 05 22 10  14 07 21.621   -04 12 29.21  .04334 1.0497 149.4 20.9 7292 100
2019 05 22 11  14 07 49.570   -04 13 53.49  .04324 1.0497 149.4 20.9 7371 100
2019 05 22 12  14 08 17.660   -04 15 18.16  .04313 1.0496 149.5 20.9 7451 100
2019 05 22 13  14 08 45.890   -04 16 43.24  .04303 1.0496 149.6 20.9 7532 100
2019 05 22 14  14 09 14.262   -04 18 08.72  .04293 1.0495 149.6 20.9 7614 100
2019 05 22 15  14 09 42.776   -04 19 34.61  .04283 1.0495 149.7 20.9 7696 100
2019 05 22 16  14 10 11.433   -04 21 00.90  .04273 1.0494 149.8 20.8 7779 100
2019 05 22 17  14 10 40.234   -04 22 27.60  .04263 1.0494 149.9 20.8 7863 100
2019 05 22 18  14 11 09.179   -04 23 54.70  .04253 1.0493 149.9 20.8 7947 100
2019 05 22 19  14 11 38.269   -04 25 22.21  .04243 1.0493 150.0 20.8 8033 100
2019 05 22 20  14 12 07.505   -04 26 50.13  .04233 1.0492 150.1 20.8 8119 100
2019 05 22 21  14 12 36.887   -04 28 18.46  .04223 1.0492 150.2 20.8 8206 100
2019 05 22 22  14 13 06.416   -04 29 47.20  .04213 1.0491 150.2 20.8 8294 100
2019 05 22 23  14 13 36.094   -04 31 16.35  .04203 1.0491 150.3 20.8 8382 100
2019 05 23 00  14 14 05.920   -04 32 45.91  .04193 1.0490 150.4 20.8 8471 100
2019 05 23 01  14 14 35.896   -04 34 15.89  .04183 1.0490 150.5 20.8 8562 100
2019 05 23 02  14 15 06.021   -04 35 46.28  .04173 1.0489 150.6 20.8 8652 100
2019 05 23 03  14 15 36.298   -04 37 17.08  .04163 1.0489 150.6 20.8 8744 100
2019 05 23 04  14 16 06.726   -04 38 48.30  .04153 1.0488 150.7 20.8 8837 100
2019 05 23 05  14 16 37.307   -04 40 19.93  .04144 1.0487 150.8 20.7 8930 100
2019 05 23 06  14 17 08.040   -04 41 51.98  .04134 1.0487 150.9 20.7 9024 100
2019 05 23 07  14 17 38.928   -04 43 24.45  .04124 1.0486 151.0 20.7 9119 100